Time,TemperatureF,DewpointF,PressureIn,WindDirection,WindDirectionDegrees,WindSpeedMPH,WindSpeedGustMPH,Humidity,HourlyPrecipIn,Conditions,Clouds,dailyrainin,SoftwareType,DateUTC
2013-02-01 00:03:00,12.0,10.0,30.08,WNW,298,0.0,3.0,90,0.00,,,0.02,,2013-02-01 05:03:00,
2013-02-01 00:11:00,12.0,10.0,30.08,WNW,298,0.0,3.0,90,0.00,,,0.02,,2013-02-01 05:11:00,
2013-02-01 00:22:00,12.0,10.0,30.08,WNW,298,0.0,3.0,90,0.00,,,0.02,,2013-02-01 05:22:00,
2013-02-01 00:32:00,12.0,9.0,30.09,WNW,293,0.0,2.0,89,0.00,,,0.02,,2013-02-01 05:32:00,
2013-02-01 00:42:00,12.0,9.0,30.09,WNW,293,0.0,2.0,89,0.00,,,0.02,,2013-02-01 05:42:00,
2013-02-01 00:52:00,12.0,9.0,30.09,NW,319,0.0,3.0,89,0.00,,,0.02,,2013-02-01 05:52:00,
2013-02-01 01:02:00,12.0,10.0,30.10,NW,319,0.0,1.0,90,0.00,,,0.02,,2013-02-01 06:02:00,
2013-02-01 01:11:00,12.0,10.0,30.10,NW,319,0.0,1.0,90,0.00,,,0.02,,2013-02-01 06:11:00,
2013-02-01 01:22:00,12.0,9.0,30.11,NW,309,0.0,4.0,89,0.00,,,0.02,,2013-02-01 06:22:00,
2013-02-01 01:32:00,11.0,8.0,30.11,ENE,63,0.0,3.0,89,0.00,,,0.02,,2013-02-01 06:32:00,
2013-02-01 01:42:00,11.0,8.0,30.11,ENE,63,0.0,3.0,89,0.00,,,0.02,,2013-02-01 06:42:00,
2013-02-01 01:52:00,11.0,8.0,30.12,NW,309,0.0,3.0,89,0.00,,,0.02,,2013-02-01 06:52:00,
2013-02-01 02:02:00,11.0,8.0,30.12,WSW,246,0.0,4.0,89,0.00,,,0.02,,2013-02-01 07:02:00,
2013-02-01 02:12:00,11.0,8.0,30.12,WSW,246,0.0,4.0,89,0.00,,,0.02,,2013-02-01 07:12:00,
2013-02-01 02:22:00,11.0,9.0,30.13,South,170,0.0,2.0,90,0.00,,,0.02,,2013-02-01 07:22:00,
2013-02-01 02:32:00,11.0,8.0,30.14,West,272,0.0,2.0,89,0.00,,,0.02,,2013-02-01 07:32:00,
2013-02-01 02:42:00,11.0,8.0,30.14,West,272,0.0,2.0,89,0.00,,,0.02,,2013-02-01 07:42:00,
2013-02-01 02:51:00,11.0,8.0,30.15,NNW,340,0.0,0.0,89,0.00,,,0.02,,2013-02-01 07:51:00,
2013-02-01 03:01:00,11.0,8.0,30.15,West,279,0.0,0.0,89,0.00,,,0.02,,2013-02-01 08:01:00,
2013-02-01 03:11:00,11.0,8.0,30.15,West,279,0.0,0.0,89,0.00,,,0.02,,2013-02-01 08:11:00,
2013-02-01 03:21:00,11.0,8.0,30.16,NNW,327,0.0,3.0,89,0.00,,,0.02,,2013-02-01 08:21:00,
2013-02-01 03:32:00,11.0,8.0,30.17,West,281,0.0,1.0,89,0.00,,,0.02,,2013-02-01 08:32:00,
2013-02-01 03:42:00,11.0,8.0,30.17,West,281,0.0,1.0,89,0.00,,,0.02,,2013-02-01 08:42:00,
2013-02-01 03:52:00,11.0,8.0,30.18,NW,314,0.0,5.0,89,0.00,,,0.02,,2013-02-01 08:52:00,
2013-02-01 04:01:00,10.0,7.0,30.19,WNW,293,0.0,3.0,89,0.00,,,0.02,,2013-02-01 09:01:00,
2013-02-01 04:11:00,10.0,7.0,30.19,WNW,293,0.0,3.0,89,0.00,,,0.02,,2013-02-01 09:11:00,
2013-02-01 04:21:00,10.0,7.0,30.20,WSW,254,0.0,3.0,89,0.00,,,0.02,,2013-02-01 09:21:00,
2013-02-01 04:32:00,10.0,7.0,30.21,West,272,0.0,2.0,89,0.00,,,0.02,,2013-02-01 09:32:00,
2013-02-01 04:41:00,10.0,7.0,30.21,West,272,0.0,2.0,89,0.00,,,0.02,,2013-02-01 09:41:00,
2013-02-01 04:51:00,10.0,7.0,30.22,SW,229,0.0,1.0,89,0.00,,,0.02,,2013-02-01 09:51:00,
2013-02-01 05:01:00,9.0,6.0,30.22,SW,223,0.0,0.0,87,0.00,,,0.02,,2013-02-01 10:01:00,
2013-02-01 05:11:00,9.0,6.0,30.22,SW,223,0.0,0.0,87,0.00,,,0.02,,2013-02-01 10:11:00,
2013-02-01 05:21:00,8.0,5.0,30.23,SW,222,0.0,0.0,87,0.00,,,0.02,,2013-02-01 10:21:00,
2013-02-01 05:32:00,7.0,4.0,30.24,WSW,254,0.0,0.0,88,0.00,,,0.02,,2013-02-01 10:32:00,
2013-02-01 05:42:00,7.0,4.0,30.24,WSW,254,0.0,0.0,88,0.00,,,0.02,,2013-02-01 10:42:00,
2013-02-01 05:52:00,7.0,4.0,30.25,SW,220,0.0,0.0,88,0.00,,,0.02,,2013-02-01 10:52:00,
2013-02-01 06:02:00,7.0,4.0,30.26,SW,217,0.0,0.0,88,0.00,,,0.02,,2013-02-01 11:02:00,
2013-02-01 06:11:00,7.0,4.0,30.26,SW,217,0.0,0.0,88,0.00,,,0.02,,2013-02-01 11:11:00,
2013-02-01 06:22:00,7.0,4.0,30.27,WSW,242,0.0,0.0,88,0.00,,,0.02,,2013-02-01 11:22:00,
2013-02-01 06:32:00,7.0,4.0,30.27,SSW,202,0.0,0.0,88,0.00,,,0.02,,2013-02-01 11:32:00,
2013-02-01 06:42:00,7.0,4.0,30.27,SSW,202,0.0,0.0,88,0.00,,,0.02,,2013-02-01 11:42:00,
2013-02-01 06:53:00,7.0,4.0,30.28,SW,223,0.0,0.0,88,0.00,,,0.02,,2013-02-01 11:53:00,
2013-02-01 07:02:00,7.0,4.0,30.29,SW,222,0.0,0.0,88,0.00,,,0.02,,2013-02-01 12:02:00,
2013-02-01 07:12:00,7.0,4.0,30.29,SW,222,0.0,0.0,88,0.00,,,0.02,,2013-02-01 12:12:00,
2013-02-01 07:22:00,7.0,4.0,30.29,SW,222,0.0,0.0,88,0.00,,,0.02,,2013-02-01 12:22:00,
2013-02-01 07:32:00,6.0,3.0,30.30,South,190,0.0,0.0,88,0.00,,,0.02,,2013-02-01 12:32:00,
2013-02-01 07:42:00,6.0,3.0,30.30,South,190,0.0,0.0,88,0.00,,,0.02,,2013-02-01 12:42:00,
2013-02-01 07:52:00,6.0,3.0,30.31,SSW,207,0.0,0.0,88,0.00,,,0.02,,2013-02-01 12:52:00,
2013-02-01 08:02:00,6.0,3.0,30.31,SSW,199,0.0,0.0,88,0.00,,,0.02,,2013-02-01 13:02:00,
2013-02-01 08:11:00,6.0,3.0,30.31,SSW,199,0.0,0.0,88,0.00,,,0.02,,2013-02-01 13:11:00,
2013-02-01 08:22:00,6.0,3.0,30.32,SSW,208,0.0,0.0,88,0.00,,,0.02,,2013-02-01 13:22:00,
2013-02-01 08:32:00,6.0,3.0,30.32,SSW,205,0.0,0.0,87,0.00,,,0.02,,2013-02-01 13:32:00,
2013-02-01 08:42:00,6.0,3.0,30.32,SSW,205,0.0,0.0,87,0.00,,,0.02,,2013-02-01 13:42:00,
2013-02-01 08:52:00,6.0,3.0,30.32,SSW,205,0.0,0.0,87,0.00,,,0.02,,2013-02-01 13:52:00,
2013-02-01 09:03:00,5.0,2.0,30.33,SSW,201,0.0,0.0,88,0.00,,,0.02,,2013-02-01 14:03:00,
2013-02-01 09:11:00,5.0,2.0,30.33,SSW,201,0.0,0.0,88,0.00,,,0.02,,2013-02-01 14:11:00,
2013-02-01 09:21:00,5.0,2.0,30.34,North,9,0.0,0.0,88,0.00,,,0.02,,2013-02-01 14:21:00,
2013-02-01 09:32:00,6.0,3.0,30.35,South,180,0.0,0.0,87,0.00,,,0.02,,2013-02-01 14:32:00,
2013-02-01 09:42:00,6.0,3.0,30.35,South,180,0.0,0.0,87,0.00,,,0.02,,2013-02-01 14:42:00,
2013-02-01 09:52:00,5.0,2.0,30.35,SSE,168,0.0,0.0,86,0.00,,,0.02,,2013-02-01 14:52:00,
2013-02-01 10:02:00,5.0,2.0,30.35,SW,224,0.0,0.0,86,0.00,,,0.02,,2013-02-01 15:02:00,
2013-02-01 10:12:00,5.0,2.0,30.36,West,265,1.0,3.0,86,0.00,,,0.02,,2013-02-01 15:12:00,
2013-02-01 10:22:00,5.0,2.0,30.36,West,265,1.0,3.0,86,0.00,,,0.02,,2013-02-01 15:22:00,
2013-02-01 10:33:00,6.0,3.0,30.37,SSW,205,0.0,2.0,86,0.00,,,0.02,,2013-02-01 15:33:00,
2013-02-01 10:42:00,6.0,3.0,30.37,SSW,205,0.0,2.0,86,0.00,,,0.02,,2013-02-01 15:42:00,
2013-02-01 10:52:00,6.0,3.0,30.37,SSW,201,0.0,3.0,86,0.00,,,0.02,,2013-02-01 15:52:00,
2013-02-01 11:03:00,6.0,3.0,30.38,WSW,238,0.0,3.0,86,0.00,,,0.02,,2013-02-01 16:03:00,
2013-02-01 11:11:00,7.0,4.0,30.39,SSW,193,0.0,4.0,86,0.00,,,0.02,,2013-02-01 16:11:00,
2013-02-01 11:22:00,7.0,4.0,30.39,SSW,193,0.0,4.0,86,0.00,,,0.02,,2013-02-01 16:22:00,
2013-02-01 11:33:00,8.0,4.0,30.39,SE,132,0.0,3.0,85,0.00,,,0.02,,2013-02-01 16:33:00,
2013-02-01 11:43:00,9.0,5.0,30.40,ESE,117,1.0,5.0,83,0.00,,,0.02,,2013-02-01 16:43:00,
2013-02-01 11:52:00,9.0,5.0,30.40,ESE,117,1.0,5.0,83,0.00,,,0.02,,2013-02-01 16:52:00,
2013-02-01 12:02:00,9.0,4.0,30.40,South,172,1.0,4.0,81,0.00,,,0.02,,2013-02-01 17:02:00,
2013-02-01 12:12:00,9.0,4.0,30.40,South,172,1.0,4.0,81,0.00,,,0.02,,2013-02-01 17:12:00,
2013-02-01 12:22:00,9.0,4.0,30.40,SSW,209,3.0,8.0,80,0.00,,,0.02,,2013-02-01 17:22:00,
2013-02-01 12:32:00,10.0,5.0,30.40,SE,144,3.0,6.0,80,0.00,,,0.02,,2013-02-01 17:32:00,
2013-02-01 12:42:00,10.0,5.0,30.40,SE,144,3.0,6.0,80,0.00,,,0.02,,2013-02-01 17:42:00,
2013-02-01 12:52:00,10.0,5.0,30.40,SSW,207,4.0,8.0,78,0.00,,,0.02,,2013-02-01 17:52:00,
2013-02-01 13:03:00,9.0,4.0,30.40,SSW,198,2.0,8.0,78,0.00,,,0.02,,2013-02-01 18:03:00,
2013-02-01 13:12:00,9.0,4.0,30.40,SSW,198,2.0,8.0,78,0.00,,,0.02,,2013-02-01 18:12:00,
2013-02-01 13:22:00,10.0,5.0,30.40,SSW,194,2.0,7.0,78,0.00,,,0.02,,2013-02-01 18:22:00,
2013-02-01 13:32:00,10.0,4.0,30.40,SSE,156,3.0,8.0,76,0.00,,,0.02,,2013-02-01 18:32:00,
2013-02-01 13:42:00,10.0,4.0,30.40,SSE,156,3.0,8.0,76,0.00,,,0.02,,2013-02-01 18:42:00,
2013-02-01 13:52:00,10.0,4.0,30.40,SE,128,3.0,8.0,77,0.00,,,0.02,,2013-02-01 18:52:00,
2013-02-01 14:02:00,10.0,4.0,30.39,SSE,164,4.0,7.0,77,0.00,,,0.02,,2013-02-01 19:02:00,
2013-02-01 14:12:00,10.0,4.0,30.39,SSE,164,4.0,7.0,77,0.00,,,0.02,,2013-02-01 19:12:00,
2013-02-01 14:21:00,11.0,5.0,30.39,SSE,151,1.0,7.0,76,0.00,,,0.02,,2013-02-01 19:21:00,
2013-02-01 14:32:00,12.0,6.0,30.38,SE,143,2.0,5.0,75,0.00,,,0.02,,2013-02-01 19:32:00,
2013-02-01 14:42:00,12.0,6.0,30.38,SE,143,2.0,5.0,75,0.00,,,0.02,,2013-02-01 19:42:00,
2013-02-01 14:51:00,11.0,5.0,30.37,SE,140,2.0,7.0,76,0.00,,,0.02,,2013-02-01 19:51:00,
2013-02-01 15:02:00,12.0,6.0,30.37,South,173,3.0,6.0,75,0.00,,,0.02,,2013-02-01 20:02:00,
2013-02-01 15:11:00,12.0,6.0,30.37,South,173,3.0,6.0,75,0.00,,,0.02,,2013-02-01 20:11:00,
2013-02-01 15:21:00,12.0,5.0,30.37,SE,141,3.0,7.0,74,0.00,,,0.02,,2013-02-01 20:21:00,
2013-02-01 15:32:00,12.0,5.0,30.37,SE,141,3.0,7.0,74,0.00,,,0.02,,2013-02-01 20:32:00,
2013-02-01 15:42:00,12.0,5.0,30.37,SE,141,3.0,7.0,74,0.00,,,0.02,,2013-02-01 20:42:00,
2013-02-01 15:52:00,13.0,6.0,30.36,SSE,150,0.0,6.0,74,0.00,,,0.01,,2013-02-01 20:52:00,
2013-02-01 16:02:00,14.0,7.0,30.36,SW,228,0.0,4.0,73,0.00,,,0.01,,2013-02-01 21:02:00,
2013-02-01 16:12:00,14.0,7.0,30.36,SW,228,0.0,4.0,73,0.00,,,0.01,,2013-02-01 21:12:00,
2013-02-01 16:21:00,15.0,7.0,30.36,SW,217,2.0,5.0,70,0.00,,,0.01,,2013-02-01 21:21:00,
2013-02-01 16:32:00,15.0,7.0,30.36,SE,143,0.0,3.0,71,0.00,,,0.01,,2013-02-01 21:32:00,
2013-02-01 16:42:00,15.0,7.0,30.36,SE,143,0.0,3.0,71,0.00,,,0.01,,2013-02-01 21:42:00,
2013-02-01 16:52:00,15.0,7.0,30.35,SSW,204,0.0,6.0,70,0.00,,,0.01,,2013-02-01 21:52:00,
2013-02-01 17:02:00,15.0,7.0,30.35,SSW,194,0.0,3.0,69,0.00,,,0.01,,2013-02-01 22:02:00,
2013-02-01 17:11:00,15.0,7.0,30.35,SSW,194,0.0,3.0,69,0.00,,,0.01,,2013-02-01 22:11:00,
2013-02-01 17:21:00,14.0,6.0,30.35,SSW,196,0.0,2.0,71,0.00,,,0.01,,2013-02-01 22:21:00,
2013-02-01 17:32:00,13.0,6.0,30.35,South,170,0.0,3.0,72,0.00,,,0.00,,2013-02-01 22:32:00,
2013-02-01 17:42:00,13.0,6.0,30.35,South,170,0.0,3.0,72,0.00,,,0.00,,2013-02-01 22:42:00,
2013-02-01 17:51:00,13.0,6.0,30.35,SSE,158,0.0,3.0,73,0.00,,,0.00,,2013-02-01 22:51:00,
2013-02-01 18:01:00,12.0,6.0,30.34,SSE,162,0.0,2.0,75,0.00,,,0.00,,2013-02-01 23:01:00,
2013-02-01 18:11:00,12.0,6.0,30.34,SSE,162,0.0,2.0,75,0.00,,,0.00,,2013-02-01 23:11:00,
2013-02-01 18:21:00,12.0,6.0,30.35,South,176,2.0,6.0,76,0.00,,,0.00,,2013-02-01 23:21:00,
2013-02-01 18:32:00,11.0,5.0,30.34,South,186,0.0,3.0,76,0.00,,,0.00,,2013-02-01 23:32:00,
2013-02-01 18:42:00,11.0,5.0,30.34,South,186,0.0,3.0,76,0.00,,,0.00,,2013-02-01 23:42:00,
2013-02-01 18:52:00,11.0,5.0,30.34,SSE,157,0.0,3.0,77,0.00,,,0.00,,2013-02-01 23:52:00,
2013-02-01 19:02:00,10.0,5.0,30.34,South,178,0.0,1.0,78,0.00,,,0.00,,2013-02-02 00:02:00,
2013-02-01 19:11:00,10.0,5.0,30.34,South,178,0.0,1.0,78,0.00,,,0.00,,2013-02-02 00:11:00,
2013-02-01 19:21:00,10.0,5.0,30.34,South,178,0.0,1.0,78,0.00,,,0.00,,2013-02-02 00:21:00,
2013-02-01 19:32:00,9.0,4.0,30.34,South,178,0.0,0.0,79,0.00,,,0.00,,2013-02-02 00:32:00,
2013-02-01 19:42:00,9.0,4.0,30.34,South,178,0.0,0.0,79,0.00,,,0.00,,2013-02-02 00:42:00,
2013-02-01 19:52:00,8.0,3.0,30.34,South,178,0.0,0.0,81,0.00,,,0.00,,2013-02-02 00:52:00,
2013-02-01 20:02:00,8.0,4.0,30.34,South,178,0.0,0.0,83,0.00,,,0.00,,2013-02-02 01:02:00,
2013-02-01 20:11:00,8.0,4.0,30.34,South,178,0.0,0.0,83,0.00,,,0.00,,2013-02-02 01:11:00,
2013-02-01 20:21:00,7.0,3.0,30.34,South,178,0.0,0.0,83,0.00,,,0.00,,2013-02-02 01:21:00,
2013-02-01 20:32:00,7.0,3.0,30.33,South,178,0.0,0.0,84,0.00,,,0.00,,2013-02-02 01:32:00,
2013-02-01 20:42:00,7.0,3.0,30.33,South,178,0.0,0.0,84,0.00,,,0.00,,2013-02-02 01:42:00,
2013-02-01 20:52:00,8.0,4.0,30.33,South,178,0.0,1.0,84,0.00,,,0.00,,2013-02-02 01:52:00,
2013-02-01 21:01:00,8.0,4.0,30.33,South,178,0.0,0.0,84,0.00,,,0.00,,2013-02-02 02:01:00,
2013-02-01 21:11:00,8.0,4.0,30.33,South,178,0.0,0.0,84,0.00,,,0.00,,2013-02-02 02:11:00,
2013-02-01 21:21:00,8.0,4.0,30.32,South,178,0.0,0.0,84,0.00,,,0.00,,2013-02-02 02:21:00,
2013-02-01 21:32:00,8.0,4.0,30.32,South,178,0.0,0.0,83,0.00,,,0.00,,2013-02-02 02:32:00,
2013-02-01 21:42:00,8.0,4.0,30.32,South,178,0.0,0.0,83,0.00,,,0.00,,2013-02-02 02:42:00,
2013-02-01 21:52:00,7.0,3.0,30.32,South,178,0.0,0.0,84,0.00,,,0.00,,2013-02-02 02:52:00,
2013-02-01 22:02:00,7.0,4.0,30.31,South,178,0.0,0.0,87,0.00,,,0.00,,2013-02-02 03:02:00,
2013-02-01 22:11:00,7.0,4.0,30.31,South,178,0.0,0.0,87,0.00,,,0.00,,2013-02-02 03:11:00,
2013-02-01 22:22:00,8.0,5.0,30.31,South,178,0.0,0.0,87,0.00,,,0.00,,2013-02-02 03:22:00,
2013-02-01 22:32:00,9.0,6.0,30.30,South,178,0.0,0.0,86,0.00,,,0.00,,2013-02-02 03:32:00,
2013-02-01 22:42:00,9.0,6.0,30.30,South,178,0.0,0.0,87,0.00,,,0.00,,2013-02-02 03:42:00,
2013-02-01 22:52:00,9.0,6.0,30.30,South,178,0.0,0.0,87,0.00,,,0.00,,2013-02-02 03:52:00,
2013-02-01 23:01:00,9.0,6.0,30.29,South,178,0.0,0.0,87,0.00,,,0.00,,2013-02-02 04:01:00,
2013-02-01 23:11:00,9.0,6.0,30.29,South,178,0.0,0.0,87,0.00,,,0.00,,2013-02-02 04:11:00,
2013-02-01 23:21:00,13.0,10.0,30.29,SSE,159,1.0,5.0,86,0.00,,,0.00,,2013-02-02 04:21:00,
2013-02-01 23:32:00,14.0,10.0,30.29,SE,134,0.0,2.0,83,0.00,,,0.00,,2013-02-02 04:32:00,
2013-02-01 23:42:00,14.0,10.0,30.29,SE,134,0.0,2.0,83,0.00,,,0.00,,2013-02-02 04:42:00,
2013-02-01 23:51:00,14.0,10.0,30.29,SSE,155,0.0,3.0,82,0.00,,,0.00,,2013-02-02 04:51:00,